カタログに戻る

SL-8 R/B

運用中PO
NORAD 12088·ROCKET BODY·🇷🇺 Russia

打ち上げ Dec 5, 1980 から Plesetsk Cosmodrome

Loading…

次のパス (今後24時間)

TLE

最新Source: Space-Track

元期: Sep 14, 2026, 05:38 UTC

1 12088U 80097B   26257.23526199  .00000063  00000-0  48098-4 0  9994
2 12088  82.9472 352.4752 0048181 337.1739  22.7276 13.77346963299652

AllMySatでSL-8 R/Bをリアルタイム追跡

Download on the App Store